FALCON EYE 2

导读

FALCON EYE 2(隼眼2号)是阿联酋(AE)的军事光学遥感卫星,于北京时间2020年12月2日09:33在法属圭亚那库鲁航天发射中心发射升空,原定于织女星火箭发射,最终由俄罗斯联盟-ST-A火箭执行任务。 该项目由空客防务与航天负责建造卫星与地面系统,卫星入轨608公里太阳同步轨道,可为阿联酋提供高分辨率光学对地观测服务,支撑军事侦察、国土监测等领域需求。

基本信息
目录编号:
47226
目录名称:
FALCON EYE 2
国际标识:
2020-090A
轨道中心:
EARTH
卫星名称:
FALCON EYE 2
卫星全名:
--
卫星状态:
在轨 (已飞行2112 天)
发射日期:
2020-12-02 UTC
国别 :
(AE)
星等 :
--
该卫星已列入 空间交会检测服务 Space Conjunction Data Service (SCDS) ,当前飞行风险评估等级: 无高风险
轨道信息
数据来源 国际轨道数据 AOE轨道数据
星历时间 2026-09-14T05:58:50+0800
9小时前
查看轨道信息
2026-09-13T00:00:00+0800
1天前
查看轨道信息
半长轴 6991.996km 6992.001km
偏心率 0.0001384 0.0001173
轨道倾角 97.852° 97.851°
近地点辐角 76.241° 80.463°
升交点赤经 330.410° 329.179°
平近点角 283.896° 85.968°
近地点 612.891km 613.043km
远地点 614.827km 614.685km
周期 96.975分钟 96.975分钟
每日圈数 14.84913 14.849114
详细信息
使用方式:
暂无
2D轨道图
3D轨道图
轨道高度分析图
轨道倾角分析图
轨道综合分析图
查看轨道综合分析图
与全量物体交会距离演化趋势 订阅飞行安全评估服务
与全量物体交会风险概率演化趋势 订阅飞行安全评估服务